Flag for Switzerland Weather past 2 weeks in Biel, Switzerland

45 °F

Sprinkles. Partly cloudy.

Feels Like: 39 °F
Forecast: 34 / 50 °F
Wind: 12 mph from Southwest

Location: Grenchen

Current Time: Nov 30, 2015 at 9:14:00 AM

Latest Report: Nov 30, 2015 at 7:50 AM

Visibility: N/A

Pressure: 30.42 "Hg

Humidity: 93%

Dew point: 43 °F

Location of BielLocation

Historic Weather in Biel — Graph


Biel temperature yesterday

Maximum temperature yesterday: 45 °F (at 7:50 PM)
Minimum temperature yesterday: 34 °F (at 12:20 AM)
Average temperature yesterday: 39 °F

Past Weeks' High & Low Weather Summary

High63 °F (Nov 15, 1:50 PM)100% (Nov 15, 11:20 PM)30.42 "Hg (Nov 15, 11:20 PM)
Low23 °F (Nov 24, 2:20 AM)48% (Nov 15, 12:20 PM)29.45 "Hg (Nov 21, 12:50 PM)
Average42 °F85%30.05 "Hg
* Reported Nov 15 7:20 AM — Nov 30 7:50 AM, Biel, Weather by CustomWeather, © 2015

Note: Actual official high and low records may vary slightly from our data, if they occured in-between our weather recording intervals... More about our weather records


Biel weather history for previous 24 hours

Time TempWeatherWind HumidityBarometerVisibility
7:50 AM
Mon, Nov 30
45 °FSprinkles. Partly cloudy.12 mph93%30.42 "HgN/A
7:20 AM45 °FSprinkles. Partly cloudy.8 mph93%30.42 "HgN/A
6:50 AM45 °FPartly cloudy.10 mph93%30.42 "HgN/A
6:20 AM45 °FSprinkles. Passing clouds.13 mph93%30.39 "HgN/A
5:50 AM46 °FMostly cloudy.18 mph87%30.39 "HgN/A
5:20 AM46 °FSprinkles. Passing clouds.14 mph87%30.39 "HgN/A
4:20 AM45 °FSprinkles. Passing clouds.13 mph93%30.39 "HgN/A
3:20 AM46 °FSprinkles. Overcast.14 mph87%30.39 "HgN/A
1:20 AM46 °FDrizzle. Mostly cloudy.17 mph87%30.39 "HgN/A
12:50 AM45 °FPassing clouds.13 mph93%30.39 "HgN/A
11:20 PM
Sun, Nov 29
45 °FSprinkles. Partly cloudy.14 mph93%30.36 "Hg4 mi
10:50 PM45 °FSprinkles. Partly cloudy.10 mph93%30.39 "Hg6 mi
10:20 PM45 °FOvercast.13 mph93%30.36 "HgN/A
9:50 PM45 °FDrizzle. Overcast.14 mph93%30.36 "HgN/A
9:20 PM45 °FPassing clouds.10 mph93%30.36 "HgN/A
8:50 PM45 °FSprinkles. Partly cloudy.17 mph93%30.36 "HgN/A
8:20 PM45 °FSprinkles. Passing clouds.18 mph93%30.36 "HgN/A
7:50 PM45 °FSprinkles. Overcast.21 mph93%30.36 "HgN/A
7:20 PM43 °FSprinkles. Partly cloudy.18 mph100%30.33 "Hg6 mi
6:50 PM43 °FPartly cloudy.20 mph93%30.33 "HgN/A
6:20 PM43 °FSprinkles. Passing clouds.18 mph93%30.33 "HgN/A
5:50 PM43 °FPassing clouds.12 mph93%30.33 "HgN/A
5:20 PM43 °FLight rain. Partly sunny.14 mph93%30.33 "Hg4 mi
4:50 PM43 °FLight rain. Fog.15 mph93%30.33 "Hg3 mi
4:20 PM43 °FDrizzle. Fog.18 mph93%30.33 "Hg3 mi
3:50 PM43 °FDrizzle. Partly sunny.23 mph93%30.30 "Hg4 mi
3:20 PM41 °FDrizzle. Broken clouds.18 mph100%30.30 "Hg4 mi
2:50 PM41 °FPartly sunny.18 mph93%30.30 "Hg4 mi
2:20 PM41 °FLight rain. Partly sunny.21 mph87%30.30 "HgN/A
1:50 PM41 °FBroken clouds.22 mph87%30.30 "HgN/A
1:20 PM41 °FLight rain. Cloudy.21 mph87%30.30 "HgN/A
12:50 PM39 °FLight rain. Broken clouds.23 mph93%30.27 "HgN/A
12:20 PM39 °FLight rain. Mostly cloudy.25 mph93%30.30 "HgN/A
11:50 AM39 °FLight rain. Broken clouds.24 mph93%30.30 "HgN/A
11:20 AM39 °FLight rain. Broken clouds.24 mph93%30.30 "HgN/A
10:20 AM37 °FLight rain. Broken clouds.25 mph93%30.30 "HgN/A
9:50 AM36 °FLight rain. More clouds than sun.22 mph93%30.30 "Hg4 mi
9:20 AM36 °FLight rain. Partly sunny.21 mph93%30.30 "Hg4 mi
Weather by CustomWeather, © 2015

See weather overviewHow to use our weather pages